Location: �couen
(49.0206°N, 2.3831°E)
Time: 05:36:32
(UTC+00:00)

Cosmos 1758 - Pass Details

Date: 04 June 2022
Orbit: 538 x 557 km, 82.5° (Epoch: 03 July)

Event Time Altitude Azimuth Distance (km) Brightness Sun altitude
Rises 21:31:25 0° 1° (N) 2,723 7.9 -12.2°
Reaches altitude 10° 21:33:56 10° 16° (NNE) 1,828 6.6 -12.4°
Maximum altitude 21:37:11 23° 70° (ENE) 1,198 4.9 -12.7°
Enters shadow 21:39:28 15° 113° (ESE) 1,544 5.1 -12.9°
